GW5108 Weather Reports


Display with metric or nautical units.
time (UTC)temp
F
wind
direction
speed
MPH
gust
MPH
rain 1hr
in
rain 24hr
in
rain mn
in
humidity
%
barometer
mb
20260504050732 45 299 0.0 0.0 0.00 0.00 0.00 58 1019.4
20260504050229 45 299 0.0 0.0 0.00 0.00 0.00 57 1019.4
20260504045726 45 299 0.0 0.0 0.00 0.00 0.00 55 1019.4
20260504045221 44 291 0.0 0.0 0.00 0.00 0.00 53 1019.4
20260504044719 45 291 0.0 0.0 0.00 0.00 0.00 52 1019.4
20260504044216 45 291 0.0 0.0 0.00 0.00 0.00 53 1019.4
20260504043713 45 291 0.0 1.0 0.00 0.00 0.00 53 1019.2
20260504043210 45 291 0.0 2.0 0.00 0.00 0.00 53 1019.3
20260504042708 44 293 0.0 0.0 0.00 0.00 0.00 57 1019.3
20260504042204 44 293 0.0 0.0 0.00 0.00 0.00 55 1019.2
20260504041700 44 294 0.0 0.0 0.00 0.00 0.00 51 1019.2
20260504041155 43 297 0.0 0.0 0.00 0.00 0.00 52 1019.2
20260504040653 44 297 0.0 0.0 0.00 0.00 0.00 57 1019.0
20260504040150 44 297 0.0 0.0 0.00 0.00 0.00 55 1019.2
20260504035646 44 297 0.0 0.0 0.00 0.00 0.00 56 1019.2
20260504035143 44 297 0.0 0.0 0.00 0.00 0.00 56 1019.2
20260504034641 44 297 0.0 0.0 0.00 0.00 0.00 58 1019.0
20260504034138 45 297 0.0 0.0 0.00 0.00 0.00 57 1019.0
20260504033635 46 297 0.0 0.0 0.00 0.00 0.00 56 1019.2
20260504033133 46 299 0.0 1.0 0.00 0.00 0.00 50 1019.2
20260504032629 45 301 0.0 1.0 0.00 0.00 0.00 49 1019.2
20260504032126 44 303 1.0 1.0 0.00 0.00 0.00 52 1018.6
20260504031624 44 303 0.0 0.0 0.00 0.00 0.00 53 1018.7
20260504031120 43 303 0.0 0.0 0.00 0.00 0.00 55 1018.9
20260504030617 43 303 0.0 0.0 0.00 0.00 0.00 55 1019.0
20260504030113 43 303 0.0 0.0 0.00 0.00 0.00 55 1019.0
20260504025610 42 303 0.0 0.0 0.00 0.00 0.00 59 1018.9
20260504025107 42 303 0.0 0.0 0.00 0.00 0.00 59 1019.0
20260504024604 42 303 0.0 0.0 0.00 0.00 0.00 60 1018.9
20260504024101 41 303 0.0 0.0 0.00 0.00 0.00 58 1018.9
20260504023557 41 303 0.0 0.0 0.00 0.00 0.00 60 1019.2
20260504023053 40 303 0.0 0.0 0.00 0.00 0.00 61 1018.9
20260504022550 40 303 0.0 0.0 0.00 0.00 0.00 61 1019.4
20260504022046 40 303 0.0 0.0 0.00 0.00 0.00 59 1019.3
20260504021543 41 303 0.0 0.0 0.00 0.00 0.00 58 1019.3
20260504021040 41 303 0.0 0.0 0.00 0.00 0.00 58 1019.4
20260504020537 41 303 0.0 0.0 0.00 0.00 0.00 57 1019.0
20260504020034 42 303 0.0 0.0 0.00 0.00 0.00 57 1018.8
20260504015530 43 303 0.0 0.0 0.00 0.00 0.00 56 1018.9
20260504015026 43 303 0.0 0.0 0.00 0.00 0.00 55 1018.7
20260504014522 44 303 0.0 0.0 0.00 0.00 0.00 55 1018.7
20260504014020 44 303 0.0 0.0 0.00 0.00 0.00 54 1018.7
20260504013518 45 303 0.0 0.0 0.00 0.00 0.00 53 1018.9
20260504013014 45 303 0.0 0.0 0.00 0.00 0.00 54 1018.7
20260504012512 45 303 0.0 0.0 0.00 0.00 0.00 52 1018.6
20260504012010 45 303 0.0 0.0 0.00 0.00 0.00 53 1018.7
20260504011506 44 303 0.0 0.0 0.00 0.00 0.00 53 1018.6
20260504011001 43 303 0.0 0.0 0.00 0.00 0.00 56 1018.3
20260504010458 43 303 0.0 0.0 0.00 0.00 0.00 55 1018.4
20260504005953 43 303 0.0 0.0 0.00 0.00 0.00 54 1018.5
20260504005451 44 303 0.0 0.0 0.00 0.00 0.00 52 1018.3
20260504004948 45 303 0.0 0.0 0.00 0.00 0.00 51 1018.3
20260504004446 46 303 0.0 0.0 0.00 0.00 0.00 52 1018.5
20260504003943 46 303 0.0 0.0 0.00 0.00 0.00 48 1018.3
20260504003439 47 303 0.0 0.0 0.00 0.00 0.00 48 1018.4
20260504002935 47 304 0.0 0.0 0.00 0.00 0.00 47 1018.2
20260504002433 48 303 0.0 1.0 0.00 0.00 0.00 47 1018.1
20260504001930 49 305 0.0 2.0 0.00 0.00 0.00 47 1018.3
20260504001427 50 306 1.0 2.0 0.00 0.00 0.00 45 1018.4
20260504000924 51 302 1.0 2.0 0.00 0.00 0.00 42 1018.2
20260504000423 52 308 2.0 3.0 0.00 0.00 0.00 41 1018.3
20260503235918 53 321 0.0 2.0 0.00 0.00 0.00 38 1018.1
20260503235416 53 286 3.0 3.0 0.00 0.00 0.00 37 1018.1
20260503234914 54 306 2.0 4.0 0.00 0.00 0.00 37 1018.2
20260503234411 54 304 5.0 6.0 0.00 0.00 0.00 34 1018.3
20260503233909 55 308 5.0 8.0 0.00 0.00 0.00 36 1018.1
20260503233405 55 299 5.0 8.0 0.00 0.00 0.00 34 1018.1
20260503232901 55 305 6.0 9.0 0.00 0.00 0.00 33 1018.2
20260503232359 55 304 4.0 7.0 0.00 0.00 0.00 32 1018.1
20260503231856 55 283 5.0 6.0 0.00 0.00 0.00 32 1018.2
20260503231353 55 293 4.0 7.0 0.00 0.00 0.00 31 1018.6
20260503230849 56 257 7.0 9.0 0.00 0.00 0.00 30 1018.6
20260503230346 56 279 5.0 8.0 0.00 0.00 0.00 31 1018.4
20260503225844 56 316 5.0 9.0 0.00 0.00 0.00 32 1018.5
20260503225339 56 296 5.0 10.0 0.00 0.00 0.00 29 1018.5
20260503224836 57 298 4.0 6.0 0.00 0.00 0.00 32 1018.4
20260503224333 56 296 4.0 6.0 0.00 0.00 0.00 33 1018.5
20260503223831 56 297 4.0 9.0 0.00 0.00 0.00 29 1018.6
20260503223328 56 298 6.0 8.0 0.00 0.00 0.00 31 1018.4
20260503222824 56 323 8.0 15.0 0.00 0.00 0.00 31 1018.5
20260503222323 56 319 8.0 14.0 0.00 0.00 0.00 33 1018.3
20260503221820 57 296 5.0 8.0 0.00 0.00 0.00 33 1018.5
20260503221319 57 273 2.0 8.0 0.00 0.00 0.00 33 1018.5
20260503220814 57 268 5.0 8.0 0.00 0.00 0.00 31 1018.5
20260503220312 57 295 8.0 10.0 0.00 0.00 0.00 32 1018.3
20260503215808 56 313 4.0 4.0 0.00 0.00 0.00 31 1018.2
20260503215305 58 275 9.0 10.0 0.00 0.00 0.00 30 1018.5
20260503214803 57 324 3.0 4.0 0.00 0.00 0.00 32 1018.4
20260503214300 57 307 6.0 11.0 0.00 0.00 0.00 32 1018.6
20260503213758 57 308 7.0 10.0 0.00 0.00 0.00 32 1018.7
20260503213255 56 316 5.0 6.0 0.00 0.00 0.00 35 1018.6
20260503212752 56 301 7.0 13.0 0.00 0.00 0.00 31 1018.8
20260503212250 56 279 4.0 11.0 0.00 0.00 0.00 35 1018.7
20260503211747 56 321 2.0 9.0 0.00 0.00 0.00 29 1018.7
20260503211243 56 267 3.0 7.0 0.00 0.00 0.00 34 1018.5
20260503210738 57 269 6.0 11.0 0.00 0.00 0.00 30 1018.6
20260503210236 56 340 7.0 10.0 0.00 0.00 0.00 32 1018.6
20260503205731 56 279 7.0 13.0 0.00 0.00 0.00 29 1018.7
20260503205228 56 237 4.0 13.0 0.00 0.00 0.00 34 1018.8
20260503204724 57 308 8.0 10.0 0.00 0.00 0.00 32 1018.6
20260503204222 57 267 2.0 8.0 0.00 0.00 0.00 32 1018.8
20260503203719 57 298 5.0 9.0 0.00 0.00 0.00 35 1018.7
20260503203217 57 260 2.0 6.0 0.00 0.00 0.00 31 1018.6
20260503202714 57 255 4.0 8.0 0.00 0.00 0.00 33 1019.2
20260503202212 56 267 2.0 6.0 0.00 0.00 0.00 38 1018.9
20260503201709 56 301 6.0 9.0 0.00 0.00 0.00 32 1019.0
20260503201207 56 316 10.0 13.0 0.00 0.00 0.00 34 1019.2
20260503200703 56 315 9.0 14.0 0.00 0.00 0.00 34 1019.2
20260503200159 56 252 5.0 14.0 0.00 0.00 0.00 30 1019.5
20260503195656 56 341 7.0 14.0 0.00 0.00 0.00 31 1019.3
20260503195153 56 292 9.0 14.0 0.00 0.00 0.00 35 1019.4
20260503194650 56 261 7.0 10.0 0.00 0.00 0.00 31 1019.5
20260503194145 58 310 6.0 8.0 0.00 0.00 0.00 32 1019.7
20260503193642 57 232 2.0 7.0 0.00 0.00 0.00 36 1019.8
20260503193138 55 232 2.0 2.0 0.00 0.00 0.00 37 1019.7
20260503192634 56 320 2.0 4.0 0.00 0.00 0.00 36 1019.8
20260503192129 56 261 1.0 8.0 0.00 0.00 0.00 33 1019.9
20260503191626 56 200 6.0 8.0 0.00 0.00 0.00 32 1020.1
20260503191124 56 336 2.0 6.0 0.00 0.00 0.00 38 1020.2
20260503190620 56 252 1.0 4.0 0.00 0.00 0.00 29 1020.3
20260503190117 54 291 6.0 9.0 0.00 0.00 0.00 36 1020.3
20260503185614 54 333 2.0 7.0 0.00 0.00 0.00 36 1020.3
20260503185114 54 319 5.0 10.0 0.00 0.00 0.00 36 1020.4
20260503184609 54 312 5.0 10.0 0.00 0.00 0.00 43 1020.4
20260503184106 55 326 2.0 7.0 0.00 0.00 0.00 38 1020.3
20260503183603 53 274 8.0 13.0 0.00 0.00 0.00 33 1020.4
20260503183100 53 263 2.0 4.0 0.00 0.00 0.00 33 1020.4
20260503182559 53 285 7.0 10.0 0.00 0.00 0.00 34 1020.4
20260503182056 53 32 3.0 11.0 0.00 0.00 0.00 33 1020.6
20260503181553 52 341 4.0 10.0 0.00 0.00 0.00 39 1020.8
20260503181049 53 327 11.0 16.0 0.00 0.00 0.00 34 1021.0
20260503180547 53 241 2.0 6.0 0.00 0.00 0.00 31 1020.7
20260503180044 53 310 8.0 11.0 0.00 0.00 0.00 37 1020.8
20260503175541 52 316 5.0 6.0 0.00 0.00 0.00 43 1021.1
20260503175038 52 301 4.0 7.0 0.00 0.00 0.00 42 1021.0
20260503174536 52 347 9.0 14.0 0.00 0.00 0.00 41 1021.0
20260503174032 51 343 3.0 10.0 0.00 0.00 0.00 39 1021.1
20260503173527 52 115 1.0 4.0 0.00 0.00 0.00 42 1021.1
20260503173023 52 301 4.0 6.0 0.00 0.00 0.00 38 1021.3
20260503172521 51 253 4.0 7.0 0.00 0.00 0.00 35 1021.3
20260503172018 51 299 4.0 7.0 0.00 0.00 0.00 37 1021.1
20260503171514 51 327 6.0 7.0 0.00 0.00 0.00 45 1021.3
20260503171012 51 330 6.0 11.0 0.00 0.00 0.00 37 1021.2
20260503170508 51 313 3.0 7.0 0.00 0.00 0.00 38 1021.3
20260503150900 45 355 4.0 10.0 0.00 0.00 0.00 47 1022.2
20260503150356 45 5 6.0 11.0 0.00 0.00 0.00 45 1022.3
20260503131250 40 313 5.0 8.0 0.00 0.00 0.00 69 1022.1
20260503130748 40 325 3.0 7.0 0.00 0.00 0.00 69 1022.1
20260503130245 40 292 5.0 7.0 0.00 0.00 0.00 67 1022.2
20260503120211 36 297 4.0 6.0 0.00 0.00 0.00 82 1021.2
20260503110638 31 291 2.0 3.0 0.00 0.00 0.00 89 1020.6
20260503110136 31 291 2.0 2.0 0.00 0.00 0.00 90 1020.6
20260503081452 34 303 3.0 3.0 0.00 0.00 0.00 81 1019.0
20260503080949 34 305 5.0 6.0 0.00 0.00 0.00 80 1019.0
20260503080445 34 304 3.0 4.0 0.00 0.00 0.00 80 1019.0
20260503072921 35 314 4.0 7.0 0.00 0.00 0.00 77 1018.7
20260503072419 35 321 5.0 9.0 0.00 0.00 0.00 77 1018.7
20260503071916 36 296 4.0 7.0 0.00 0.00 0.00 76 1018.5
20260503071413 36 305 5.0 7.0 0.00 0.00 0.00 76 1018.6
20260503070909 36 309 5.0 7.0 0.00 0.00 0.00 77 1018.5
20260503070406 36 316 4.0 6.0 0.00 0.00 0.00 76 1018.6
20260503060332 36 306 4.0 8.0 0.00 0.00 0.00 74 1018.8